Snoqualmie River: Sum of the 3 forks

back to: Snoqualmie river
Sum of the 3 forks Summary - Station Details: GARW1, SNQW1, TANW1, (NOAA Hydrograph: GARW1, SNQW1, TANW1)
Latest reading:
Tue11/21 12:15 pm 4925 cfs (+476/hr)
Past 24hr max:
Mon11/20 02:15 pm 8066 cfs
Forecasted crests: (published Tue 11/21/17 08:31 am)
Tue11/21 10:00 pm 20798 cfs
Thu11/23 10:00 am 17369 cfs
Sun11/26 04:00 am 5084 cfs
Mon11/27 04:00 am 4796 cfs
Mon11/27 10:00 pm 5154 cfs

Sum of the 3 forks Details

Latest Readings

Last 100 Readings:
Tue11/21 12:15 pm 4925 cfs
Tue11/21 12:00 pm 4806 cfs
Tue11/21 11:45 am 4685 cfs
Tue11/21 11:30 am 4589 cfs
Tue11/21 11:15 am 4478 cfs
Tue11/21 11:00 am 4444 cfs
Tue11/21 10:45 am 4369 cfs
Tue11/21 10:30 am 4290 cfs
Tue11/21 10:15 am 4241 cfs
Tue11/21 10:00 am 4228 cfs
Tue11/21 09:45 am 4227 cfs
Tue11/21 09:30 am 4149 cfs
Tue11/21 09:15 am 4186 cfs
Tue11/21 09:00 am 4167 cfs
Tue11/21 08:45 am 4149 cfs
Tue11/21 08:30 am 4159 cfs
Tue11/21 08:15 am 4164 cfs
Tue11/21 08:00 am 4155 cfs
Tue11/21 07:45 am 4195 cfs
Tue11/21 07:30 am 4189 cfs
Tue11/21 07:15 am 4238 cfs
Tue11/21 07:00 am 4211 cfs
Tue11/21 06:45 am 4252 cfs
Tue11/21 06:30 am 4241 cfs
Tue11/21 06:15 am 4257 cfs
Tue11/21 06:00 am 4336 cfs
Tue11/21 05:45 am 4347 cfs
Tue11/21 05:30 am 4391 cfs
Tue11/21 05:15 am 4479 cfs
Tue11/21 05:00 am 4506 cfs
Tue11/21 04:45 am 4504 cfs
Tue11/21 04:30 am 4575 cfs
Tue11/21 04:15 am 4668 cfs
Tue11/21 04:00 am 4695 cfs
Tue11/21 03:45 am 4697 cfs
Tue11/21 03:30 am 4757 cfs
Tue11/21 03:15 am 4786 cfs
Tue11/21 03:00 am 4888 cfs
Tue11/21 02:45 am 5024 cfs
Tue11/21 02:30 am 5060 cfs
Tue11/21 02:15 am 5075 cfs
Tue11/21 02:00 am 5107 cfs
Tue11/21 01:45 am 5141 cfs
Tue11/21 01:30 am 5218 cfs
Tue11/21 01:15 am 5323 cfs
Tue11/21 01:00 am 5401 cfs
Tue11/21 12:45 am 5406 cfs
Tue11/21 12:30 am 5504 cfs
Tue11/21 12:15 am 5512 cfs
Tue11/21 12:00 am 5562 cfs
Mon11/20 11:45 pm 5665 cfs
Mon11/20 11:30 pm 5809 cfs
Mon11/20 11:15 pm 5856 cfs
Mon11/20 11:00 pm 5885 cfs
Mon11/20 10:45 pm 6019 cfs
Mon11/20 10:30 pm 6128 cfs
Mon11/20 10:15 pm 6175 cfs
Mon11/20 10:00 pm 6286 cfs
Mon11/20 09:45 pm 6286 cfs
Mon11/20 09:30 pm 6379 cfs
Mon11/20 09:15 pm 6428 cfs
Mon11/20 09:00 pm 6625 cfs
Mon11/20 08:45 pm 6697 cfs
Mon11/20 08:30 pm 6709 cfs
Mon11/20 08:15 pm 6899 cfs
Mon11/20 08:00 pm 6975 cfs
Mon11/20 07:45 pm 6961 cfs
Mon11/20 07:30 pm 7082 cfs
Mon11/20 07:15 pm 7169 cfs
Mon11/20 07:00 pm 7187 cfs
Mon11/20 06:45 pm 7237 cfs
Mon11/20 06:30 pm 7315 cfs
Mon11/20 06:15 pm 7382 cfs
Mon11/20 06:00 pm 7507 cfs
Mon11/20 05:45 pm 7436 cfs
Mon11/20 05:30 pm 7536 cfs
Mon11/20 05:15 pm 7593 cfs
Mon11/20 05:00 pm 7677 cfs
Mon11/20 04:45 pm 7672 cfs
Mon11/20 04:30 pm 7759 cfs
Mon11/20 04:15 pm 7804 cfs
Mon11/20 04:00 pm 7855 cfs
Mon11/20 03:45 pm 7790 cfs
Mon11/20 03:30 pm 7831 cfs
Mon11/20 03:15 pm 7957 cfs
Mon11/20 03:00 pm 8035 cfs
Mon11/20 02:45 pm 7996 cfs
Mon11/20 02:30 pm 7973 cfs
Mon11/20 02:15 pm 8066 cfs
Mon11/20 02:00 pm 7902 cfs
Mon11/20 01:45 pm 7954 cfs
Mon11/20 01:30 pm 7914 cfs
Mon11/20 01:15 pm 8015 cfs
Mon11/20 01:00 pm 7991 cfs
Mon11/20 12:45 pm 7858 cfs
Mon11/20 12:30 pm 7767 cfs
Mon11/20 12:15 pm 7609 cfs
Mon11/20 12:00 pm 7403 cfs
Mon11/20 11:45 am 7209 cfs
Mon11/20 11:30 am 6945 cfs

Latest Forecasts

Currently Forecasted Readings:
Tue11/21 10:00 am 4825 cfs
Tue11/21 04:00 pm 10441 cfs
Tue11/21 10:00 pm 20798 cfs
Wed11/22 04:00 am 19046 cfs
Wed11/22 10:00 am 16890 cfs
Wed11/22 04:00 pm 14975 cfs
Wed11/22 10:00 pm 11615 cfs
Thu11/23 04:00 am 11090 cfs
Thu11/23 10:00 am 17369 cfs
Thu11/23 04:00 pm 13121 cfs
Thu11/23 10:00 pm 8936 cfs
Fri11/24 04:00 am 7185 cfs
Fri11/24 10:00 am 6098 cfs
Fri11/24 04:00 pm 5308 cfs
Fri11/24 10:00 pm 4570 cfs
Sat11/25 04:00 am 3922 cfs
Sat11/25 10:00 am 3459 cfs
Sat11/25 04:00 pm 3447 cfs
Sat11/25 10:00 pm 4373 cfs
Sun11/26 04:00 am 5084 cfs
Sun11/26 10:00 am 4888 cfs
Sun11/26 04:00 pm 4607 cfs
Sun11/26 10:00 pm 4727 cfs
Mon11/27 04:00 am 4796 cfs
Mon11/27 10:00 am 4729 cfs
Mon11/27 04:00 pm 4939 cfs
Mon11/27 10:00 pm 5154 cfs
Tue11/28 04:00 am 5016 cfs
Tue11/28 10:00 am 4688 cfs
Tue11/28 04:00 pm 4666 cfs
Tue11/28 10:00 pm 4436 cfs
Wed11/29 04:00 am 3862 cfs
Wed11/29 10:00 am 3353 cfs
Wed11/29 04:00 pm 3028 cfs
Wed11/29 10:00 pm 2749 cfs
Thu11/30 04:00 am 2461 cfs
Thu11/30 10:00 am 2227 cfs
Thu11/30 04:00 pm 2027 cfs
Thu11/30 10:00 pm 1863 cfs
Fri12/01 04:00 am 1813 cfs

Snoqualmie River flood gauge data supplied by the
National Weather Service Northwest River Forecast Center.

Sign up for Floodzilla alerts.